Weather in Randers

Denmark     56°26′50″N   10°02′47″E
В апреле 2022 года жителям России запретили посещать сайт meteo.paraplan.net по решению Генеральной прокуратуры. Аудитория сайта уменьшилась в 10 раз. Владельцы сайта не видят смысла в поддержке погодного сервера в таких условиях. Сайт будет закрыт в октябре.
temp.,
°C
wind,
m/s
gust,
m/s
humid.,
%
clouds,
%
prec.,
mm/h
press.,
hPa
HPBL,
m
6 october, thu
thu623:00+15ssw112088100 0.3 10031202
02:00+12w8148792 1.2 1007913
05:00+11wsw8158693 0.5 1008945
08:00+10wsw9168426 1.1 1012881
11:00+13wsw916765 0.1 10151430
14:00+15wsw1017670 0.4 10171557
17:00+14wsw10167429 0.0 10181403
20:00+12wsw91683100 0.1 1020890
7 october, fri
fri723:00+12sw8158671 0.0 1020834
02:00+13sw7148371 0.0 1019844
05:00+14sw81484100 0.1 1017938
08:00+14sw101677100 0.1 10151092
11:00+15sw101677100 0.1 10141260
14:00+16sw10167674 0.9 10111426
17:00+14sw91679100 0.8 10091286
20:00+13sw9168490 0.9 10081011
8 october, sat
sat823:00+11wsw7138198 2.9 1007927
02:00+10wsw61287100 3.3 1007683
05:00+8sw4109378 0.0 1008278
08:00+8wsw41093100 0.1 1009280
11:00+11w697539 0.1 1010876
14:00+13w8116370 0.3 10121441
17:00+12w711695 0.3 10131268
20:00+9w512805 0.3 1015417
9 october, sun
sun923:00+8wsw411875 0.0 1017281
02:00+7wsw39925 0.0 1018184
05:00+7sw389352 0.0 1019164
08:00+7ssw389255 0.0 1019142
11:00+12sw6107380 0.0 1019696
14:00+15sw7960100 0.0 10171410
17:00+14ssw61071100 0.1 1016949
20:00+11s61376100 0.1 1014632
10 october, mon
mon1023:00+11s71669100 0.0 1011757
02:00+12s81763100 0.0 1007667
05:00+11ssw81666100 0.0 1005668
08:00+12ssw91690100 0.5 1003922
11:00+12w712690 0.6 10081163
14:00+13w914625 0.6 10121655
17:00+12w914630 0.0 10141364
20:00+9w613705 0.0 1018566